Vorticity
7 -22 18 18 5 2 3 4 8 4 4 6 4 3 2 15 -4 11 2 1 5 5 7 2 -5 5 6 6 5 5 7 7 7 7 8 8 7 7 7 8 8 6 6 5 4 3 3 3 3
6 5 11 8 6 4 9 8 8 7 1 2 4 3 8 1 8 16 5 5 -6 8 12 5 1 6 5 6 6 5 6 9 9 8 8 7 6 6 7 7 6 5 5 6 5 5 6 6 6
8 24 12 5 7 7 6 6 6 3 3 1 5 2 7 4 7 4 2 7 8 10 2 4 5 6 6 6 5 6 8 9 8 7 5 6 6 6 7 7 6 6 6 7 6 5 4 4 3
25 28 9 8 5 4 4 7 4 -1 4 -0 6 5 9 6 2 3 6 7 3 7 3 6 6 6 6 5 6 7 8 7 7 5 6 4 5 6 7 7 8 7 7 6 8 10 9 7 6
15 10 -2 7 5 6 9 4 -0 6 5 7 5 8 9 10 8 6 6 4 5 4 7 6 7 7 6 6 7 10 9 8 4 5 5 5 4 5 7 7 7 7 7 7 7 5 6 10 11
10 9 3 6 11 -0 10 7 4 6 4 7 7 7 7 8 5 6 5 4 5 6 5 7 7 6 7 8 9 11 6 5 7 7 6 6 8 9 9 9 10 10 9 10 10 9 11 8 9
4 5 8 5 5 11 12 8 7 9 7 7 9 8 3 3 10 6 3 5 6 7 7 8 6 6 9 10 9 6 7 6 5 6 6 12 11 14 11 9 8 5 7 9 7 5 5 5 5
-9 3 -0 6 4 5 11 8 8 6 7 3 8 10 9 1 8 6 7 8 9 10 9 8 6 9 8 9 7 6 5 6 9 10 11 10 6 6 8 6 5 4 4 3 3 2 4 4 3
5 5 3 4 6 9 6 7 9 15 11 4 6 7 7 9 3 1 4 4 7 9 9 7 6 7 7 7 6 6 7 7 6 8 6 5 7 6 5 3 2 3 2 4 4 4 6 6 5
8 8 4 3 3 9 8 4 4 11 9 4 5 7 7 4 8 -2 -0 6 11 10 7 6 7 5 7 7 6 8 7 7 6 4 4 3 1 3 2 3 4 5 5 6 6 6 7 7 7
13 4 2 6 4 8 10 7 -3 6 13 13 12 13 5 6 5 5 1 1 11 11 8 6 8 7 6 5 1 4 6 -1 6 1 4 8 8 4 3 6 5 4 4 4 5 5 4 5 7
12 2 -1 6 4 3 7 11 9 -1 5 4 8 20 14 6 3 3 6 -1 12 11 8 7 8 7 6 4 5 10 3 3 14 -0 7 4 5 5 5 4 4 5 4 6 4 3 4 4 3
-6 4 4 4 3 2 4 9 18 3 -11 4 6 6 18 15 12 3 7 2 12 11 8 8 5 5 5 4 7 7 8 0 7 3 3 5 5 5 5 5 5 5 6 5 7 8 6 5 5
7 8 -1 3 11 2 5 4 7 8 6 -6 6 5 10 16 15 12 12 11 13 9 8 8 4 6 4 3 7 6 5 4 4 4 6 7 5 5 4 3 3 3 4 5 5 5 8 8 7
4 15 4 -13 2 2 14 7 -1 7 -0 4 4 5 9 16 11 12 13 11 9 9 4 8 4 5 5 5 9 3 3 4 3 4 7 5 5 6 4 2 1 2 6 8 7 7 7 7 7
5 11 13 1 -10 24 6 -1 3 2 3 5 5 3 11 14 12 9 9 12 8 7 9 8 6 7 3 5 5 6 5 6 6 5 5 3 4 4 2 1 1 3 9 11 9 9 9 8 8
5 11 8 2 4 -1 5 5 1 0 3 4 1 5 9 17 11 7 11 12 7 7 9 10 7 5 6 5 4 5 6 5 5 6 4 4 3 6 1 2 3 10 10 9 8 8 7 7 9
10 16 10 -1 -3 -2 26 3 6 -0 4 6 4 3 9 15 12 9 9 7 8 9 8 8 9 7 6 7 7 5 7 5 7 4 5 4 3 4 3 3 6 6 9 7 6 9 8 7 11
19 15 13 4 -4 4 27 2 3 -2 6 3 1 1 7 10 14 7 13 5 8 6 6 7 7 7 11 11 11 7 6 6 8 5 5 6 5 4 5 5 6 6 8 6 7 4 8 8 22
10 18 16 -0 -1 8 14 1 8 -4 13 7 6 -2 7 6 11 14 10 10 9 7 5 7 8 4 4 3 4 6 6 7 7 5 5 3 4 5 7 5 11 6 8 7 5 3 9 16 13
4 11 15 14 2 2 4 11 8 2 -3 5 -3 6 2 9 10 10 12 9 11 10 7 7 6 5 5 3 5 8 10 9 5 4 4 3 1 2 3 3 12 5 9 7 8 6 6 9 16
12 8 9 16 3 4 13 12 2 -3 -1 7 4 6 13 4 9 12 14 4 6 6 6 6 6 8 9 10 3 5 9 10 6 4 2 2 1 1 2 3 10 8 10 5 6 6 9 5 4
20 8 7 8 8 6 -2 21 13 1 -1 3 7 13 9 5 6 8 9 10 11 9 7 8 6 8 7 7 7 4 7 6 5 5 3 3 2 3 3 4 7 10 9 5 6 6 7 4 2
13 11 4 8 6 -3 14 -1 25 7 5 2 5 3 12 7 6 7 8 4 3 4 3 4 5 4 4 5 6 7 5 5 4 5 4 2 2 2 3 4 3 12 12 8 6 7 8 11 9
4 11 5 4 -10 11 16 5 3 14 -0 17 7 2 13 10 7 8 12 14 13 12 10 9 8 10 10 9 8 7 6 7 5 5 6 4 3 4 4 4 3 10 12 3 8 8 10 11 6
12 8 1 -0 11 20 10 2 31 26 7 -1 -1 4 14 4 6 9 4 9 7 7 8 7 7 3 7 5 5 5 4 6 8 7 7 5 4 4 3 3 2 6 14 8 5 9 7 7 9
8 1 19 6 3 4 6 10 22 24 11 15 3 5 8 9 6 -2 -1 5 4 2 -1 9 3 7 12 11 8 6 6 7 7 5 6 6 5 5 5 4 3 5 10 12 6 4 4 -0 8
2 5 6 5 7 6 9 11 8 17 23 7 2 15 5 8 14 5 2 4 4 2 1 12 10 2 8 10 18 18 14 11 9 6 5 6 5 5 5 5 3 6 8 13 5 2 6 1 -0
7 1 -2 2 3 2 4 9 2 12 15 25 6 7 -8 -5 13 7 12 4 -5 2 0 17 3 2 0 9 11 10 11 12 10 8 7 8 5 5 4 5 4 5 8 13 5 3 4 3 11
6 4 3 8 5 1 5 13 7 7 17 18 17 9 16 10 15 -2 3 2 17 8 10 3 3 4 3 10 8 7 9 9 12 18 18 15 10 8 6 5 6 6 8 9 3 3 2 3 8
Height
5885 5885 5885 5886 5889 5886 5886 5886 5887 5888 5889 5889 5890 5890 5891 5891 5893 5895 5893 5894 5896 5898 5899 5899 5900 5900 5901 5901 5901 5902 5903 5902 5902 5901 5902 5903 5903 5903 5904 5904 5905 5906 5906 5906 5906 5907 5907 5907 5907
5884 5885 5885 5886 5888 5887 5888 5888 5888 5890 5891 5891 5892 5892 5893 5892 5892 5893 5895 5896 5897 5898 5900 5901 5901 5902 5902 5902 5902 5903 5903 5903 5902 5903 5903 5903 5903 5904 5904 5905 5905 5906 5906 5907 5907 5908 5908 5908 5908
5884 5885 5887 5887 5887 5888 5889 5888 5888 5889 5890 5892 5893 5892 5893 5894 5893 5894 5895 5896 5899 5900 5900 5902 5903 5903 5903 5903 5904 5904 5905 5905 5904 5904 5904 5904 5905 5905 5906 5907 5907 5907 5907 5908 5908 5909 5909 5908 5908
5885 5886 5888 5888 5888 5889 5889 5890 5889 5890 5890 5891 5892 5893 5893 5894 5895 5895 5896 5898 5900 5901 5902 5903 5904 5904 5904 5904 5904 5905 5906 5905 5905 5905 5905 5906 5907 5908 5909 5909 5909 5910 5910 5910 5910 5910 5910 5909 5909
5888 5888 5888 5888 5889 5890 5889 5890 5890 5890 5890 5891 5892 5894 5894 5895 5896 5897 5897 5899 5901 5901 5902 5903 5904 5905 5905 5905 5906 5906 5906 5906 5906 5906 5907 5907 5909 5910 5911 5911 5912 5912 5912 5911 5911 5911 5910 5911 5910
5889 5889 5890 5890 5889 5890 5891 5891 5892 5892 5891 5891 5893 5894 5895 5897 5897 5899 5899 5901 5902 5902 5903 5904 5905 5906 5906 5907 5907 5907 5907 5907 5908 5908 5909 5910 5911 5912 5913 5913 5914 5914 5914 5913 5912 5912 5913 5912 5911
5891 5890 5891 5890 5889 5889 5890 5891 5892 5892 5892 5893 5894 5894 5895 5897 5899 5899 5900 5902 5902 5903 5904 5905 5906 5907 5908 5908 5908 5908 5909 5909 5910 5911 5912 5913 5914 5914 5915 5916 5917 5917 5917 5916 5915 5915 5915 5914 5913
5892 5892 5891 5891 5889 5890 5891 5892 5892 5893 5893 5894 5894 5895 5896 5897 5899 5900 5901 5902 5903 5904 5905 5907 5908 5908 5909 5910 5910 5911 5911 5912 5913 5914 5914 5916 5917 5918 5918 5919 5920 5920 5920 5919 5918 5918 5917 5916 5915
5892 5892 5893 5893 5892 5890 5889 5891 5892 5892 5893 5894 5894 5895 5897 5899 5899 5901 5902 5902 5904 5905 5906 5908 5909 5910 5911 5911 5912 5913 5914 5915 5916 5917 5917 5919 5920 5921 5922 5922 5923 5922 5922 5921 5921 5920 5919 5919 5918
5890 5892 5893 5893 5892 5892 5891 5890 5891 5892 5892 5894 5895 5896 5896 5898 5901 5903 5904 5903 5904 5905 5907 5909 5910 5911 5912 5913 5914 5915 5916 5918 5919 5920 5920 5921 5922 5924 5924 5925 5925 5925 5924 5924 5923 5922 5921 5920 5919
5888 5891 5892 5892 5891 5891 5892 5891 5890 5892 5894 5894 5894 5894 5895 5897 5899 5901 5905 5905 5905 5906 5907 5909 5911 5912 5913 5914 5915 5917 5918 5920 5921 5922 5923 5924 5925 5926 5926 5927 5928 5927 5926 5926 5925 5924 5922 5922 5921
5888 5889 5890 5891 5890 5890 5891 5893 5891 5889 5891 5891 5890 5892 5893 5895 5897 5900 5904 5905 5905 5906 5908 5910 5911 5913 5914 5915 5917 5918 5920 5922 5923 5925 5926 5926 5928 5928 5928 5928 5928 5928 5928 5927 5926 5925 5924 5923 5922
5886 5889 5889 5890 5890 5890 5890 5892 5891 5890 5888 5890 5889 5891 5892 5893 5896 5899 5902 5904 5905 5907 5909 5911 5912 5914 5916 5917 5918 5920 5922 5923 5924 5926 5927 5928 5929 5929 5930 5930 5929 5929 5929 5928 5927 5927 5926 5925 5924
5881 5885 5889 5890 5890 5890 5890 5892 5892 5891 5889 5888 5889 5890 5891 5891 5893 5896 5899 5902 5904 5907 5910 5911 5912 5915 5916 5918 5920 5922 5923 5925 5925 5927 5928 5929 5929 5930 5931 5930 5930 5930 5929 5929 5928 5927 5927 5927 5925
5876 5882 5886 5890 5889 5889 5890 5892 5892 5892 5891 5888 5888 5888 5889 5890 5892 5894 5896 5899 5902 5906 5910 5911 5913 5915 5916 5918 5920 5923 5924 5926 5926 5927 5928 5929 5930 5931 5931 5931 5930 5930 5930 5929 5928 5926 5925 5925 5924
5872 5876 5883 5886 5888 5888 5889 5891 5891 5891 5891 5889 5887 5888 5888 5889 5892 5894 5897 5899 5902 5905 5909 5911 5914 5915 5916 5918 5920 5922 5924 5926 5927 5928 5929 5929 5930 5931 5932 5931 5930 5929 5929 5927 5927 5926 5925 5924 5923
5868 5873 5878 5881 5885 5887 5889 5889 5890 5890 5890 5889 5887 5887 5887 5888 5891 5893 5896 5898 5901 5903 5907 5911 5913 5915 5916 5918 5920 5922 5924 5925 5927 5928 5929 5930 5930 5932 5932 5931 5930 5930 5929 5928 5927 5926 5925 5923 5922
5865 5870 5874 5877 5882 5885 5887 5887 5887 5887 5887 5887 5885 5885 5886 5887 5890 5892 5894 5898 5901 5903 5906 5910 5913 5914 5916 5918 5920 5923 5924 5925 5927 5928 5928 5929 5931 5931 5931 5930 5930 5930 5929 5928 5927 5926 5925 5923 5922
5862 5865 5869 5873 5875 5880 5883 5883 5884 5885 5886 5885 5884 5884 5883 5886 5888 5891 5894 5897 5901 5903 5906 5910 5914 5915 5917 5918 5920 5923 5924 5925 5927 5928 5929 5929 5931 5931 5931 5930 5930 5929 5928 5927 5926 5925 5924 5923 5920
5856 5860 5864 5868 5871 5874 5877 5879 5880 5883 5885 5883 5881 5881 5881 5884 5887 5891 5893 5897 5901 5903 5906 5910 5913 5915 5916 5918 5921 5924 5925 5926 5927 5928 5928 5929 5929 5930 5931 5931 5930 5929 5928 5927 5926 5925 5923 5922 5919
5851 5856 5860 5865 5865 5867 5871 5873 5877 5880 5881 5882 5882 5882 5879 5880 5885 5888 5892 5895 5898 5902 5906 5908 5911 5914 5917 5919 5921 5922 5924 5925 5927 5928 5927 5927 5928 5929 5930 5930 5930 5928 5928 5926 5925 5925 5923 5921 5918
5846 5851 5853 5857 5858 5860 5865 5869 5870 5873 5876 5879 5880 5881 5881 5879 5884 5888 5891 5895 5899 5900 5903 5906 5909 5913 5916 5918 5919 5921 5923 5924 5925 5926 5926 5926 5927 5928 5929 5929 5928 5927 5927 5926 5925 5924 5923 5921 5920
5844 5843 5847 5850 5852 5853 5857 5859 5867 5867 5871 5876 5878 5880 5880 5880 5881 5886 5890 5893 5898 5900 5902 5905 5907 5911 5913 5916 5917 5918 5920 5922 5923 5924 5925 5926 5926 5927 5928 5928 5927 5926 5925 5925 5925 5924 5923 5922 5921
5834 5836 5837 5839 5844 5839 5851 5852 5858 5863 5871 5872 5874 5878 5878 5879 5880 5883 5887 5889 5894 5897 5899 5902 5906 5908 5910 5912 5913 5915 5916 5919 5921 5921 5922 5924 5925 5927 5927 5925 5924 5924 5924 5924 5924 5924 5922 5922 5921
5826 5825 5829 5833 5832 5835 5846 5844 5856 5858 5864 5867 5871 5874 5877 5877 5878 5882 5886 5889 5893 5896 5898 5900 5903 5906 5908 5909 5911 5912 5913 5916 5918 5920 5921 5921 5922 5924 5925 5924 5923 5922 5922 5922 5923 5923 5921 5921 5921
5819 5822 5825 5826 5830 5833 5837 5839 5847 5855 5858 5862 5866 5869 5871 5873 5875 5879 5882 5886 5890 5894 5896 5898 5900 5903 5905 5906 5908 5909 5911 5913 5915 5918 5919 5919 5919 5920 5921 5920 5921 5921 5921 5921 5921 5921 5920 5920 5920
5811 5815 5824 5821 5823 5826 5832 5836 5843 5849 5854 5858 5861 5864 5868 5872 5873 5877 5879 5881 5886 5890 5893 5895 5897 5898 5900 5901 5902 5904 5907 5909 5911 5912 5914 5915 5915 5917 5917 5917 5917 5918 5919 5920 5919 5920 5920 5920 5920
5802 5809 5809 5811 5816 5820 5826 5830 5837 5844 5850 5855 5857 5860 5865 5870 5873 5876 5878 5880 5882 5884 5887 5889 5891 5893 5894 5895 5897 5899 5902 5904 5905 5908 5910 5911 5911 5912 5913 5913 5913 5915 5916 5917 5917 5917 5918 5918 5918
5795 5797 5801 5806 5809 5816 5821 5826 5831 5838 5844 5848 5854 5858 5863 5867 5872 5874 5877 5879 5881 5882 5883 5885 5887 5889 5890 5891 5893 5896 5897 5899 5900 5903 5904 5906 5906 5908 5908 5908 5910 5911 5911 5913 5914 5914 5915 5915 5915
5785 5788 5791 5794 5807 5813 5815 5820 5825 5832 5837 5841 5846 5852 5856 5861 5866 5869 5872 5874 5876 5878 5880 5882 5884 5886 5887 5889 5890 5893 5894 5895 5896 5898 5899 5900 5901 5901 5902 5904 5905 5906 5908 5909 5910 5911 5913 5913 5911